Location: Meanaryar
(48.4161°N, 4.7315°W)
Time: 06:16:09
(UTC+00:00)

Ariane Rocket - Pass Details

Date: 18 September 2020
Orbit: 761 x 769 km, 98.7° (Epoch: 23 October)

Event Time Altitude Azimuth Distance (km) Brightness Sun altitude
Exits shadow 19:49:59 - 160° (SSE) 2,471 5.3 -14.7°
Reaches altitude 10° 19:50:25 10° 160° (SSE) 2,293 5.1 -14.8°
Maximum altitude 19:55:29 83° 73° (ENE) 777 2.9 -15.6°
Drops below altitude 10° 20:00:35 10° 347° (NNW) 2,316 6.0 -16.4°
Sets 20:02:54 0° 347° (NNW) 3,248 6.8 -16.7°
